Location: Flint Hill Observatory
(31.1875°N, 100.5222°W)
Time: 17:01:05
(UTC-05:00)

Daily predictions for brighter satellites

Satellite Brightness Start Highest point End
(mag) Time Altitude Azimuth Time Altitude Azimuth Time Altitude Azimuth
Cosmos 1072 Rocket 4.4 19:45:44 10° S 19:51:48 74° E 19:57:53 10° N
ASTRO E2 2.8 19:48:40 10° W 19:52:43 80° S 19:56:46 10° ESE
Cosmos 1076 Rocket 3.9 19:49:13 10° N 19:53:20 41° E 19:57:26 10° SSE
ATLAS 5 CENTAUR R/B 3.2 19:53:07 10° SW 19:57:32 41° NW 20:02:17 10° NNE
Cosmos-2242 3.4 19:53:41 10° SSE 19:57:45 41° E 20:01:53 10° NNE
MSX 3.9 19:52:59 10° SSE 19:58:44 86° WSW 20:04:30 10° NNW
Cosmos 1766 Rocket 4.0 19:54:50 10° NNE 19:58:53 38° E 20:02:54 10° SSE
Cosmos 1269 Rocket 4.2 19:55:13 10° S 20:00:17 49° ESE 20:05:21 10° NNE
SJ-6B 3.4 19:57:42 10° SE 20:01:22 37° ENE 20:05:08 10° N
FREGAT/IRIS 3.7 20:00:46 10° SE 20:03:22 25° ENE 20:05:58 10° NNE
CZ-2C R/B 4.1 20:00:03 10° SSW 20:04:39 38° W 20:09:08 10° NNW
Milstar 3 4.2 19:55:55 10° W 20:04:48 77° S 20:20:49 13° E
Cosmos 1544 3.7 20:02:28 10° SSE 20:05:54 36° E 20:09:21 10° NNE
Cosmos 2056 Rocket 4.3 20:02:32 10° NNW 20:07:52 59° WSW 20:13:08 10° S
Cosmos 1484 Rocket 2.9 20:04:06 10° S 20:07:55 80° WSW 20:11:50 10° NNW
SAR-Lupe-4 3.6 20:05:51 10° SSE 20:09:20 56° ENE 20:12:50 10° N
METEOR-M 4.5 20:11:35 10° SE 20:16:35 43° ENE 20:21:37 10° N
Cosmos 1758 3.3 20:13:08 10° S 20:17:12 89° E 20:21:19 10° N
USA 215 3.2 20:13:27 10° NE 20:19:58 70° SE 20:26:27 10° SSW
OAO 3 Rocket 3.4 20:16:39 10° WNW 20:21:19 59° N 20:24:39 19° E
Cosmos 1842 Rocket 3.9 20:22:36 10° SSE 20:26:38 40° E 20:30:42 10° NNE
Cosmos 2034 Rocket 4.1 20:20:46 10° S 20:27:01 85° W 20:33:22 10° N
Cosmos 1408 Rocket 3.6 20:25:21 10° N 20:29:41 79° W 20:33:58 10° S
Cosmos 1500 Rocket 4.4 20:27:03 10° NNE 20:30:57 29° E 20:32:52 21° ESE
SeaSat 1 4.2 20:33:02 14° SE 20:33:02 14° SE 20:34:14 10° SSE
Helios 1A 3.3 20:30:34 10° SE 20:34:32 43° ENE 20:38:32 10° N
FENGYUN 3A 4.4 20:32:29 19° ESE 20:35:20 31° ENE 20:40:00 10° N
Spot 1 4.2 20:31:01 10° SSE 20:35:44 65° ENE 20:40:12 10° N
Meteor 1-21 Rocket 4.1 20:35:17 10° N 20:40:50 79° E 20:46:22 10° S
AVUM R/B 3.1 20:38:44 10° S 20:41:25 50° SE 20:41:25 50° SE
Meteor 1-29 2.9 20:42:23 10° NNE 20:45:53 89° E 20:49:20 10° SSW
GPS 2-04 Rocket1 3.3 20:45:26 10° WNW 20:48:44 40° N 20:49:39 33° NNE
H-2A R/B 4.4 20:52:22 20° NNE 20:52:22 20° NNE 20:53:59 10° NNE
Atlas Centaur 2 4.3 20:44:17 10° W 20:51:47 35° SSW 20:58:19 12° SSE
Resurs 1-3 3.4 20:52:48 19° SSE 20:55:52 72° ENE 21:00:14 10° N
SEDSat Delta rocket 4.0 20:50:09 10° W 20:56:46 78° SSW 20:59:50 35° ESE
ALOS 2.3 20:58:47 44° ESE 20:59:53 55° ENE 21:04:27 10° N
ASTEX 1 3.2 20:55:08 10° N 21:00:01 72° E 21:04:53 10° S
Cosmos 1743 Rocket 3.6 20:56:09 10° N 21:00:35 78° W 21:04:55 10° S
Resurs 01 Rocket 1.9 20:59:44 10° S 21:04:09 67° WSW 21:08:35 10° NNW
Cosmos 2251 Rocket 3.5 20:59:14 10° S 21:04:18 57° ESE 21:09:26 10° NNE
Cosmos 1943 Rocket 4.0 21:00:46 10° NNE 21:02:44 16° NE 21:02:44 16° NE
Meteosat 1 Rocket2 3.7 21:00:47 10° WSW 21:08:09 64° S 21:09:24 50° ESE
Helios 1B rocket 3.9 21:04:40 10° N 21:08:29 38° WNW 21:12:17 10° SW
Cosmos 1943 3.6 21:02:54 10° SSW 21:08:29 65° WNW 21:14:05 10° NNE
ISS -0.1 21:08:14 10° NW 21:08:33 10° NNW 21:08:52 10° NNW
Cosmos 2369 Rocket 2.3 21:07:05 10° N 21:12:36 52° ENE 21:12:52 52° ENE
Cosmos 1733 3.8 21:09:05 10° SSW 21:12:54 57° W 21:16:42 10° N
BREEZE-M DEB (TANK) 4.3 20:46:07 10° NW 21:14:56 88° NE 21:17:47 41° SE
CENTAUR R/B 3.3 21:11:08 10° SW 21:16:50 48° NW 21:23:11 10° NNE
Cosmos 839 Rocket 4.3 21:12:37 10° NNW 21:19:33 49° ENE 21:20:01 48° ENE
Cosmos 1470 4.3 21:16:52 10° SSW 21:20:27 35° W 21:24:02 10° NNW
Cosmos 1674 3.7 21:22:18 10° NNW 21:26:01 45° W 21:26:29 42° WSW
Delta 168 4.3 21:25:17 10° WSW 21:29:39 42° S 21:29:39 42° S
Cosmos 2279 Rocket 4.2 21:32:29 52° NE 21:32:29 52° NE 21:37:16 10° NNE
GP-B 4.4 21:28:02 10° N 21:30:26 32° N 21:30:26 32° N
ASTRO E2 4.5 21:29:31 10° W 21:32:03 27° SW 21:32:03 27° SW
Cosmos 1655 Rocket 4.3 21:50:21 10° N 21:55:08 56° N 21:55:08 56° N
Cosmos 2026 Rocket 4.1 21:50:41 10° N 21:55:58 66° NW 21:55:58 66° NW
